Location: Nashville
(36.1660°N, 86.7840°W)
Time: 19:44:51
(UTC-05:00)

SO-50 - Pass Details

Date: 22 May 2022
Orbit: 586 x 697 km, 64.6° (Epoch: 29 June)

Event Time Altitude Azimuth Distance (km) Brightness Sun altitude
Rises 20:44:41 0° 327° (NNW) 3,079 ? -10.0°
Reaches altitude 10° 20:47:03 10° 326° (NW) 2,160 ? -10.4°
Maximum altitude 20:51:58 72° 243° (WSW) 729 ? -11.2°
Enters shadow 20:56:30 12° 159° (SSE) 2,009 ? -11.9°
